Content
SEND FEEDBACK

Daily
Averages
Monthly
Summary
United States of America

DOWNIEVILLE, CALIFORNIA


Home > North America > United States > California
Elevation: 5045 feet     Latitude: 39 34N     Longitude: 120 38W

WEATHER
 
SELECT A DAY
Number of Records: 228,909;   Date Range: 1/1/95 - 4/15/14
 
SHARE

PRINT THIS DATA

[ ← Previous Day ]
WEATHER ALMANAC - AUGUST 14, 2013
[ Next Day → ]
[ °C ]   °F
Weather ElementAverageHighLow
Temperature69.1 °F78.8 °F (1:55 pm)64 °F (6:52 am)
Dewpoint33.5 °F39.2 °F (3:55 pm)28.4 °F (10:20 am)
Humidity27.3 %34 % (2:08 am)17 % (2:52 pm)
Barometer30.19 in30.42 in (12:24 am)29.88 in (11:52 pm)
Wind Speed2.7 mph9.2 mph (1:52 pm)
Wind Gust19.6 mph (1:52 pm)
Weather ElementAverage
Visibility6.5 mi
Wind DirectionENE (55.4 °)

Weather ElementTotal
Precipitation---
Cooling Degree Days6.4 (Base 65)
Growing Degree Days21.4 (Base 50)
Averaged from 80 records on August 14, 2013
WEATHER CONDITIONS BREAKOUT
WIND DIRECTION BREAKOUT
WEATHER BY HOUR - AUGUST 14, 2013
[ °C ]   °F
Local TimeTemperatureDewpointHumidityBarometerVisibilityWind DirectionWind SpeedGust SpeedPrecipitationEventsConditions
12:23 AM66.2 °F35.6 °F32 %30.21 in2.5 miENE (60°)3.5 mphHaze
12:24 AM66.2 °F35.6 °F32 %30.42 in2.5 miENE (60°)3.5 mphMostly Cloudy
12:33 AM66.2 °F35.6 °F32 %30.42 in1.8 miCalmMostly Cloudy
12:38 AM66.2 °F35.6 °F32 %30.21 in1.8 miENE (70°)3.5 mphHaze
12:52 AM66.0 °F35.1 °F32 %29.92 in1.8 miCalmHaze
12:55 AM66.2 °F35.6 °F32 %30.42 in1.8 miCalmOvercast
1:11 AM66.2 °F33.8 °F30 %30.20 in1.2 miCalmHaze
1:25 AM66.2 °F33.8 °F30 %30.20 in1.2 miCalmHaze
1:29 AM66.2 °F33.8 °F30 %30.20 in1.5 miCalmHaze
1:38 AM66.2 °F35.6 °F32 %30.42 in2.0 miCalmOvercast
1:43 AM66.2 °F33.8 °F30 %30.20 in2.0 miCalmHaze
1:52 AM66.9 °F34.0 °F30 %29.90 in2.0 miCalmHaze
1:55 AM66.2 °F33.8 °F30 %30.42 in2.0 miCalmOvercast
2:08 AM64.4 °F35.6 °F34 %30.42 in3.0 miCalmOvercast
2:12 AM64.4 °F35.6 °F34 %30.20 in4.0 miCalmHaze
2:27 AM66.2 °F35.6 °F32 %30.20 in7.0 miCalmOvercast
2:39 AM66.2 °F35.6 °F32 %30.20 in8.0 miCalmOvercast
2:52 AM66.0 °F35.1 °F32 %29.89 in6.0 miCalmHaze
2:55 AM66.2 °F35.6 °F32 %30.42 in6.0 miCalmOvercast
3:19 AM66.2 °F35.6 °F32 %30.19 in4.0 miCalmHaze
3:26 AM64.4 °F35.6 °F34 %30.19 in4.0 miCalmHaze
3:52 AM64.9 °F35.1 °F33 %29.90 in6.0 miCalmHaze
3:55 AM64.4 °F35.6 °F34 %30.42 in6.0 miCalmOvercast
4:26 AM64.4 °F33.8 °F32 %30.19 in6.0 miCalmHaze
4:52 AM64.9 °F34.0 °F32 %29.89 in7.0 miCalmOvercast
4:55 AM64.4 °F33.8 °F32 %30.42 in7.0 miCalmOvercast
5:52 AM64.9 °F33.1 °F31 %29.90 in6.0 miCalmHaze
5:55 AM64.4 °F33.8 °F32 %30.42 in6.0 miCalmOvercast
6:27 AM64.4 °F33.8 °F32 %30.20 in9.0 miCalmScattered Clouds
6:42 AM64.4 °F33.8 °F32 %30.20 in6.0 miEast (90°)3.5 mphHaze
6:52 AM64.0 °F34.0 °F33 %29.92 in6.0 miEast (80°)3.5 mphHaze
6:55 AM64.4 °F33.8 °F32 %30.42 in7.0 miEast (80°)3.5 mphMostly Cloudy
6:59 AM64.4 °F33.8 °F32 %30.20 in9.0 miEast (80°)3.5 mphMostly Cloudy
7:08 AM64.4 °F33.8 °F32 %30.19 in10.0 miEast (80°)3.5 mphPartly Cloudy
7:42 AM66.2 °F33.8 °F30 %30.20 in10.0 miEast (90°)3.5 mphMostly Cloudy
7:52 AM66.0 °F33.1 °F29 %29.93 in10.0 miEast (100°)3.5 mphMostly Cloudy
7:55 AM66.2 °F33.8 °F30 %30.42 in10.0 miVariable3.5 mphScattered Clouds
7:59 AM66.2 °F33.8 °F30 %30.19 in10.0 miEast (100°)3.5 mphScattered Clouds
8:40 AM69.8 °F33.8 °F27 %30.20 in10.0 miVariable3.5 mphMostly Cloudy
8:50 AM71.6 °F32.0 °F23 %30.20 in10.0 miCalmPartly Cloudy
8:52 AM71.1 °F33.1 °F25 %29.93 in10.0 miVariable3.5 mphPartly Cloudy
8:55 AM71.6 °F33.8 °F25 %30.42 in10.0 miVariable3.5 mphPartly Cloudy
9:27 AM71.6 °F30.2 °F22 %30.21 in10.0 miSouth (180°)3.5 mphMostly Cloudy
9:52 AM72.0 °F30.9 °F22 %29.93 in5.0 miSSW (200°)4.6 mphHaze
9:55 AM71.6 °F30.2 °F22 %30.42 in4.0 miSSW (200°)5.8 mphOvercast
9:58 AM71.6 °F30.2 °F22 %30.42 in2.5 miSSW (200°)6.9 mphOvercast
10:03 AM71.6 °F32.0 °F23 %30.21 in2.0 miVariable3.5 mphHaze
10:15 AM71.6 °F33.8 °F25 %30.42 in3.0 miVariable3.5 mphOvercast
10:20 AM71.6 °F28.4 °F20 %30.22 in4.0 miSW (230°)5.8 mphHaze
10:52 AM72.0 °F33.1 °F24 %29.93 in6.0 miSouth (190°)5.8 mphHaze
10:55 AM73.4 °F33.8 °F23 %30.42 in7.0 miCalmOvercast
11:23 AM73.4 °F28.4 °F19 %30.22 in8.0 miSSE (160°)4.6 mphOvercast
11:52 AM75.0 °F30.9 °F20 %29.92 in4.0 miVariable5.8 mphHaze
11:55 AM75.2 °F33.8 °F22 %30.42 in4.0 miSSE (150°)5.8 mphMostly Cloudy
12:52 PM75.9 °F33.1 °F21 %29.92 in6.0 miSouth (190°)8.1 mphHaze
12:55 PM75.2 °F33.8 °F22 %30.42 in6.0 miSouth (170°)6.9 mphScattered Clouds
1:52 PM78.1 °F30.9 °F18 %29.89 in6.0 miSouth (180°)9.2 mph19.6 mphHaze
1:55 PM78.8 °F32.0 °F18 %30.42 in6.0 miVariable6.9 mphClear
2:52 PM78.1 °F30.0 °F17 %29.90 in10.0 miVariable6.9 mphClear
2:55 PM78.8 °F32.0 °F18 %30.42 in10.0 miSW (230°)8.1 mphClear
3:52 PM77.0 °F37.9 °F24 %29.90 in8.0 miVariable5.8 mphClear
3:55 PM77.0 °F39.2 °F26 %30.42 in8.0 miSSW (210°)8.1 mphClear
4:52 PM77.0 °F33.1 °F20 %29.89 in9.0 miVariable5.8 mphClear
4:55 PM77.0 °F33.8 °F21 %30.42 in10.0 miVariable6.9 mphClear
5:52 PM75.9 °F33.1 °F21 %29.89 in10.0 miVariable4.6 mphClear
5:55 PM75.2 °F33.8 °F22 %30.42 in10.0 miVariable4.6 mphClear
6:52 PM73.9 °F33.1 °F22 %29.90 in10.0 miWSW (240°)4.6 mphClear
6:55 PM73.4 °F33.8 °F23 %30.42 in10.0 miSW (220°)3.5 mphClear
7:52 PM71.1 °F33.1 °F25 %29.90 in10.0 miWSW (250°)3.5 mphClear
7:55 PM71.6 °F33.8 °F25 %30.42 in10.0 miWSW (240°)3.5 mphClear
8:52 PM66.9 °F33.1 °F28 %29.91 in10.0 miCalmPartly Cloudy
8:55 PM66.2 °F33.8 °F30 %30.42 in10.0 miCalmPartly Cloudy
9:10 PM68.0 °F32.0 °F26 %30.19 in10.0 miCalmMostly Cloudy
9:52 PM66.9 °F32.0 °F27 %29.91 in10.0 miCalmMostly Cloudy
9:55 PM66.2 °F32.0 °F28 %30.42 in10.0 miCalmMostly Cloudy
10:14 PM69.8 °F32.0 °F25 %30.19 in10.0 miCalmScattered Clouds
10:52 PM66.0 °F32.0 °F28 %29.91 in10.0 miNE (50°)3.5 mphPartly Cloudy
10:55 PM66.2 °F32.0 °F28 %30.42 in10.0 miNE (50°)3.5 mphPartly Cloudy
11:52 PM68.0 °F33.1 °F27 %29.88 in4.0 miCalmHaze
11:55 PM69.8 °F32.0 °F25 %30.42 in3.5 miCalmMostly Cloudy
Hourly data recorded from KBLU, located 22.31 miles away from Downieville, California







STORIES FROM OUR PARTNERS